Location: Roanoke
(37.2710°N, 79.9420°W)
Time: 22:20:15
(UTC-05:00)

Courier 1B Rocket - Pass Details

Date: 24 November 2019
Orbit: 920 x 1202 km, 28.2° (Epoch: 10 December)

Event Time Altitude Azimuth Distance (km) Brightness Sun altitude
Rises 17:11:51 0° 264° (W) 3,807 9.8 -2.1°
Reaches altitude 10° 17:14:52 10° 253° (WSW) 2,899 9.5 -2.7°
Maximum altitude 17:20:51 29° 196° (SSW) 1,910 7.1 -3.8°
Drops below altitude 10° 17:27:09 10° 139° (SE) 3,057 7.4 -4.9°
Sets 17:30:26 0° 129° (SE) 4,048 7.9 -5.5°
